AU224 Weather Reports


Display with metric or nautical units.
time (UTC)temp
F
wind
direction
speed
MPH
gust
MPH
rain 1hr
in
rain 24hr
in
rain mn
in
humidity
%
barometer
mb
20260905024603 66 0 0.0 0.0 0.00 0.00 0.00 66 1016.2
20260905023053 67 0 0.0 0.0 0.00 0.00 0.00 65 1015.8
20260905021548 67 0 0.0 0.0 0.00 0.00 0.00 63 1015.8
20260905020056 68 0 0.0 0.0 0.00 0.00 0.00 63 1015.9
20260905014553 69 0 0.0 0.0 0.00 0.00 0.00 62 1015.6
20260905013117 69 0 0.0 0.0 0.00 0.00 0.00 61 1015.4
20260905011606 70 0 0.0 6.0 0.00 0.00 0.00 61 1015.5
20260905010059 70 250 0.0 6.0 0.00 0.00 0.00 60 1015.4
20260905004607 71 0 0.0 0.0 0.00 0.00 0.00 59 1015.4
20260905003049 71 280 0.0 4.0 0.00 0.00 0.00 57 1015.4
20260905001604 72 290 0.0 9.0 0.00 0.00 0.00 57 1015.5
20260905000055 72 131 0.0 4.0 0.00 0.00 0.00 55 1015.1
20260904234554 73 0 0.0 3.0 0.00 0.00 0.00 55 1015.0
20260904233058 73 0 0.0 4.0 0.00 0.00 0.00 55 1014.8
20260904231558 73 0 0.0 6.0 0.00 0.00 0.00 54 1014.8
20260904230108 73 174 0.0 7.0 0.00 0.00 0.00 54 1014.9
20260904224621 73 0 0.0 9.0 0.00 0.00 0.00 54 1014.9
20260904223109 73 0 0.0 6.0 0.00 0.00 0.00 54 1014.7
20260904221602 73 0 0.0 4.0 0.00 0.00 0.00 54 1014.7
20260904220100 73 221 0.0 9.0 0.00 0.00 0.00 54 1014.6
20260904214555 73 0 0.0 8.0 0.00 0.00 0.00 53 1014.5
20260904213101 73 0 0.0 4.0 0.00 0.00 0.00 53 1014.4
20260904211555 73 0 0.0 3.0 0.00 0.00 0.00 53 1014.3
20260904210055 74 0 0.0 2.0 0.00 0.00 0.00 52 1014.4
20260904204549 74 0 0.0 3.0 0.00 0.00 0.00 52 1014.4
20260904203057 74 0 0.0 1.0 0.00 0.00 0.00 51 1014.4
20260904201613 74 0 0.0 8.0 0.00 0.00 0.00 51 1014.4
20260904200108 74 0 0.0 4.0 0.00 0.00 0.00 50 1014.3
20260904194553 75 0 0.0 4.0 0.00 0.00 0.00 50 1014.3
20260904193046 75 0 0.0 4.0 0.00 0.00 0.00 49 1014.2
20260904191552 75 0 0.0 3.0 0.00 0.00 0.00 49 1014.0
20260904190051 76 0 0.0 7.0 0.00 0.00 0.00 48 1013.6
20260904184553 76 0 0.0 4.0 0.00 0.00 0.00 47 1013.4
20260904183046 77 0 0.0 4.0 0.00 0.00 0.00 46 1013.3
20260904181553 77 176 0.0 4.0 0.00 0.00 0.00 45 1013.2
20260904180050 78 0 0.0 8.0 0.00 0.00 0.00 44 1013.0
20260904174551 79 0 0.0 9.0 0.00 0.00 0.00 43 1012.9
20260904173047 79 0 0.0 8.0 0.00 0.00 0.00 42 1012.8
20260904171616 80 191 1.0 12.0 0.00 0.00 0.00 42 1012.8
20260904170051 81 133 1.0 0.0 0.00 0.00 0.00 42 1012.8
20260904164549 81 294 0.0 13.0 0.00 0.00 0.00 42 1012.9
20260904163058 82 293 4.0 14.0 0.00 0.00 0.00 40 1012.9
20260904161559 83 227 5.0 13.0 0.00 0.00 0.00 40 1013.0
20260904160058 83 360 2.0 16.0 0.00 0.00 0.00 39 1013.0
20260904154550 84 183 3.0 3.0 0.00 0.00 0.00 38 1013.1
20260904153108 84 138 2.0 5.0 0.00 0.00 0.00 37 1013.3
20260904151552 85 360 4.0 16.0 0.00 0.00 0.00 37 1013.4
20260904150051 85 360 2.0 17.0 0.00 0.00 0.00 37 1013.5
20260904144605 85 360 4.0 12.0 0.00 0.00 0.00 36 1013.5
20260904143112 85 238 1.0 22.0 0.00 0.00 0.00 37 1013.6
20260904141549 84 254 7.0 24.0 0.00 0.00 0.00 38 1013.8
20260904140054 84 277 12.0 13.0 0.00 0.00 0.00 38 1014.0
20260904134558 84 360 7.0 19.0 0.00 0.00 0.00 37 1014.0
20260904133106 84 321 4.0 13.0 0.00 0.00 0.00 36 1014.1
20260904131602 84 188 2.0 10.0 0.00 0.00 0.00 38 1014.3
20260904130108 84 360 2.0 12.0 0.00 0.00 0.00 38 1014.5
20260904124552 83 271 4.0 0.0 0.00 0.00 0.00 38 1014.6
20260904123053 83 360 1.0 12.0 0.00 0.00 0.00 38 1014.9
20260904121547 82 158 1.0 2.0 0.00 0.00 0.00 38 1015.1
20260904120105 82 271 7.0 18.0 0.00 0.00 0.00 38 1015.3
20260904114554 83 269 2.0 14.0 0.00 0.00 0.00 40 1015.2
20260904113056 82 0 2.0 11.0 0.00 0.00 0.00 41 1015.6
20260904111550 82 360 10.0 16.0 0.00 0.00 0.00 41 1015.9
20260904110057 81 230 6.0 13.0 0.00 0.00 0.00 41 1016.2
20260904104552 80 298 2.0 0.0 0.00 0.00 0.00 40 1016.4
20260904103050 80 254 9.0 11.0 0.00 0.00 0.00 42 1016.7
20260904101557 80 234 2.0 12.0 0.00 0.00 0.00 43 1016.9
20260904100051 78 360 3.0 15.0 0.00 0.00 0.00 43 1017.1
20260904094554 79 360 8.0 12.0 0.00 0.00 0.00 44 1017.3
20260904093049 77 163 1.0 12.0 0.00 0.00 0.00 46 1017.5
20260904091557 76 277 2.0 11.0 0.00 0.00 0.00 45 1017.7
20260904090054 76 0 2.0 13.0 0.00 0.00 0.00 47 1017.9
20260904084559 74 360 1.0 13.0 0.00 0.00 0.00 49 1017.9
20260904083049 74 0 4.0 13.0 0.00 0.00 0.00 50 1018.2
20260904081553 73 138 1.0 9.0 0.00 0.00 0.00 51 1018.1
20260904080118 72 210 1.0 9.0 0.00 0.00 0.00 54 1018.1
20260904074557 71 360 2.0 8.0 0.00 0.00 0.00 54 1018.2
20260904073057 69 196 2.0 9.0 0.00 0.00 0.00 57 1018.3
20260904071552 67 0 0.0 10.0 0.00 0.00 0.00 59 1018.3
20260904070058 65 276 1.0 7.0 0.00 0.00 0.00 63 1018.4
20260904064557 64 0 0.0 5.0 0.00 0.00 0.00 66 1018.4
20260904063112 63 190 0.0 3.0 0.00 0.00 0.00 66 1018.2
20260904061551 62 0 0.0 3.0 0.00 0.00 0.00 67 1018.2
20260904060055 62 0 0.0 3.0 0.00 0.00 0.00 67 1018.2
20260904054553 62 0 0.0 0.0 0.00 0.00 0.00 66 1018.3
20260904053105 62 0 0.0 0.0 0.00 0.00 0.00 65 1018.3
20260904051553 62 0 0.0 0.0 0.00 0.00 0.00 64 1018.3
20260904050056 63 0 0.0 0.0 0.00 0.00 0.00 64 1018.3
20260904044547 63 0 0.0 0.0 0.00 0.00 0.00 64 1018.3
20260904043059 63 0 0.0 0.0 0.00 0.00 0.00 63 1018.4
20260904041553 64 0 0.0 0.0 0.00 0.00 0.00 63 1018.4
20260904040057 64 202 0.0 0.0 0.00 0.00 0.00 63 1018.6
20260904034604 64 0 0.0 0.0 0.00 0.00 0.00 63 1018.7
20260904033059 64 0 0.0 0.0 0.00 0.00 0.00 62 1018.9
20260904031555 64 0 0.0 2.0 0.00 0.00 0.00 62 1018.7
20260904030058 64 0 0.0 1.0 0.00 0.00 0.00 62 1018.8